Weather History for Kimball, NE

Change the Weather History Date:

Saturday, December 24, 2011

  Actual Average (KSNY) Record (KSNY)
Temperature  
Mean Temperature 34 °F 28 °F  
Max Temperature 48 °F 41 °F 61 °F (1954)
Min Temperature 19 °F 15 °F -19 °F (1983)
Degree Days  
Heating Degree Days 32 37  
Month to date heating degree days 869  
Since 1 July heating degree days 2291  
Moisture  
Dew Point 8 °F    
Average Humidity 40    
Maximum Humidity 58    
Minimum Humidity 18    
Precipitation  
Precipitation 0.00 in 0.02 in 0.22 in (1985)
Month to date precipitation 0.45  
Year to date precipitation 18.45  
Sea Level Pressure  
Sea Level Pressure 30.33 in    
Wind  
Wind Speed 13 mph (WNW)    
Max Wind Speed 20 mph    
Max Gust Speed 23 mph    
Visibility 10 miles    
Events      
T = Trace of Precipitation, MM = Missing Value Source: NWS Daily Summary

Daily Weather History Graph

Daily Weather History Graph

Search for Another Location

Airport:

Trip Planner

Search our weather history database for the weather conditions in past years. The results will help you decide how hot, cold, wet, or windy it might be!

Date:

Astronomy

Dec. 24, 2011 Rise Set
Actual Time 8:18 AM CST 5:30 PM CST
Civil Twilight 7:46 AM CST 6:01 PM CST
Nautical Twilight 7:12 AM CST 6:36 PM CST
Astronomical Twilight 6:38 AM CST 7:10 PM CST
Moon 8:08 AM CST (12/24) 5:46 PM CST (12/24)
Length of Visible Light 10h 15m
Length of Day
9h 12m
New Moon, 0% of the Moon is Illuminated
Dec 24
New Moon
Dec 24
New
Jan 1
First Quarter
Jan 9
Full
Jan 16
Last Quarter

Hourly Weather History & Observations

Time (CST) Temp. Windchill Dew Point Humidity Pressure Visibility Wind Dir Wind Speed Gust Speed Precip Events Conditions
12:15 AM 25.7 °F 13.1 °F 9.3 °F 50% 30.28 in 10.0 mi WNW 16.1 mph - N/A   Clear
12:55 AM 26.6 °F 13.8 °F 8.6 °F 47% 30.28 in 10.0 mi WNW 17.3 mph - N/A   Clear
1:35 AM 26.4 °F 13.2 °F 8.2 °F 46% 30.28 in 10.0 mi WNW 18.4 mph 23.0 mph N/A   Clear
2:35 AM 25.3 °F 13.6 °F 7.7 °F 47% 30.30 in 10.0 mi WNW 13.8 mph - N/A   Clear
2:55 AM 25.2 °F 12.9 °F 7.7 °F 48% 30.30 in 10.0 mi WNW 15.0 mph - N/A   Clear
3:35 AM 24.8 °F 13.4 °F 6.8 °F 46% 30.32 in 10.0 mi WNW 12.7 mph - N/A   Clear
3:55 AM 24.8 °F 14.0 °F 7.5 °F 48% 30.32 in 10.0 mi WNW 11.5 mph - N/A   Clear
4:15 AM 24.6 °F 12.7 °F 7.3 °F 48% 30.32 in 10.0 mi WNW 13.8 mph - N/A   Clear
4:35 AM 25.2 °F 13.3 °F 7.2 °F 46% 30.32 in 10.0 mi WNW 13.8 mph - N/A   Clear
4:55 AM 25.7 °F 11.9 °F 6.8 °F 45% 30.32 in 10.0 mi WNW 19.6 mph 23.0 mph N/A   Clear
5:15 AM 24.8 °F 11.9 °F 7.0 °F 47% 30.32 in 10.0 mi WNW 16.1 mph - N/A   Clear
5:35 AM 24.4 °F 12.4 °F 7.2 °F 48% 30.32 in 10.0 mi WNW 13.8 mph - N/A   Clear
5:55 AM 23.9 °F 11.2 °F 7.5 °F 50% 30.33 in 10.0 mi WNW 15.0 mph - N/A   Clear
6:35 AM 24.8 °F 12.9 °F 6.8 °F 46% 30.33 in 10.0 mi WNW 13.8 mph - N/A   Clear
6:55 AM 23.0 °F 11.1 °F 6.8 °F 50% 30.34 in 10.0 mi WNW 12.7 mph - N/A   Clear
7:15 AM 23.0 °F 10.6 °F 6.8 °F 50% 30.35 in 10.0 mi WNW 13.8 mph - N/A   Clear
7:35 AM 21.7 °F 10.2 °F 6.8 °F 53% 30.35 in 10.0 mi WNW 11.5 mph - N/A   Clear
7:55 AM 20.7 °F 11.0 °F 6.8 °F 55% 30.35 in 10.0 mi West 8.1 mph - N/A   Clear
8:15 AM 20.1 °F 8.8 °F 6.8 °F 56% 30.35 in 10.0 mi WNW 10.4 mph - N/A   Clear
8:35 AM 19.2 °F 7.7 °F 6.6 °F 58% 30.35 in 10.0 mi WNW 10.4 mph - N/A   Clear
8:55 AM 22.1 °F 9.5 °F 7.2 °F 53% 30.35 in 10.0 mi WNW 13.8 mph - N/A   Clear
9:15 AM 23.5 °F 13.0 °F 7.5 °F 50% 30.35 in 10.0 mi WNW 10.4 mph - N/A   Clear
9:35 AM 25.5 °F 14.9 °F 7.7 °F 47% 30.36 in 10.0 mi WNW 11.5 mph - N/A   Clear
9:55 AM 27.5 °F 18.0 °F 7.9 °F 44% 30.38 in 10.0 mi West 10.4 mph - N/A   Clear
10:15 AM 30.4 °F 21.5 °F 7.7 °F 39% 30.38 in 10.0 mi West 10.4 mph - N/A   Clear
10:35 AM 32.9 °F 24.7 °F 7.2 °F 34% 30.38 in 10.0 mi WNW 10.4 mph - N/A   Clear
10:55 AM 35.4 °F 26.4 °F 7.5 °F 31% 30.38 in 10.0 mi WNW 13.8 mph - N/A   Clear
11:15 AM 37.2 °F 28.7 °F 7.9 °F 30% 30.37 in 10.0 mi WNW 13.8 mph - N/A   Clear
11:55 AM 41.2 °F 34.1 °F 7.3 °F 25% 30.36 in 10.0 mi WNW 12.7 mph - N/A   Clear
12:15 PM 43.0 °F 37.7 °F 7.5 °F 23% 30.35 in 10.0 mi WNW 9.2 mph - N/A   Clear
12:35 PM 44.8 °F 39.0 °F 5.0 °F 20% 30.33 in 10.0 mi West 11.5 mph - N/A   Clear
12:55 PM 45.9 °F 40.8 °F 5.2 °F 19% 30.31 in 10.0 mi West 10.4 mph - N/A   Clear
1:15 PM 46.6 °F - 4.6 °F 18% 30.31 in 10.0 mi West 10.4 mph - N/A   Clear
1:35 PM 46.6 °F - 6.1 °F 19% 30.31 in 10.0 mi WSW 12.7 mph - N/A   Clear
1:55 PM 47.1 °F - 6.4 °F 19% 30.30 in 10.0 mi West 11.5 mph - N/A   Clear
2:15 PM 46.4 °F 41.9 °F 6.4 °F 20% 30.30 in 10.0 mi WSW 9.2 mph - N/A   Clear
2:35 PM 46.4 °F 41.5 °F 8.6 °F 22% 30.28 in 10.0 mi West 10.4 mph 16.1 mph N/A   Clear
2:55 PM 47.7 °F - 7.7 °F 20% 30.28 in 10.0 mi West 11.5 mph - N/A   Clear
3:15 PM 48.2 °F - 5.9 °F 18% 30.29 in 10.0 mi West 12.7 mph - N/A   Clear
3:35 PM 46.2 °F 41.2 °F 10.4 °F 23% 30.28 in 10.0 mi West 10.4 mph - N/A   Clear
3:55 PM 45.0 °F 38.9 °F 5.7 °F 20% 30.29 in 10.0 mi WNW 12.7 mph - N/A   Clear
4:15 PM 43.9 °F 39.3 °F 5.7 °F 21% 30.30 in 10.0 mi WNW 8.1 mph - N/A   Clear
4:35 PM 41.5 °F 36.4 °F 7.7 °F 25% 30.30 in 10.0 mi WNW 8.1 mph - N/A   Clear
4:55 PM 37.2 °F 32.6 °F 9.1 °F 31% 30.30 in 10.0 mi NW 5.8 mph - N/A   Clear
5:15 PM 34.2 °F 30.0 °F 9.9 °F 36% 30.32 in 10.0 mi NW 4.6 mph - N/A   Clear
5:35 PM 33.1 °F 30.0 °F 10.8 °F 40% 30.32 in 10.0 mi NW 3.5 mph - N/A   Clear
5:55 PM 30.7 °F - 12.0 °F 46% 30.32 in 10.0 mi Calm Calm - N/A   Clear
6:15 PM 31.8 °F 28.5 °F 13.5 °F 47% 30.33 in 10.0 mi NW 3.5 mph - N/A   Clear
6:35 PM 32.9 °F 22.4 °F 10.8 °F 40% 30.34 in 10.0 mi WNW 16.1 mph - N/A   Clear
6:55 PM 32.0 °F 22.5 °F 11.3 °F 42% 30.35 in 10.0 mi WNW 12.7 mph - N/A   Clear
7:15 PM 30.7 °F 20.4 °F 11.3 °F 44% 30.35 in 10.0 mi WNW 13.8 mph 17.3 mph N/A   Clear
7:35 PM 30.2 °F 19.8 °F 11.8 °F 47% 30.36 in 10.0 mi WNW 13.8 mph - N/A   Clear
7:55 PM 28.8 °F 19.0 °F 11.8 °F 49% 30.37 in 10.0 mi WNW 11.5 mph - N/A   Clear
8:15 PM 29.3 °F 18.6 °F 11.7 °F 48% 30.37 in 10.0 mi WNW 13.8 mph - N/A   Clear
8:35 PM 26.6 °F 18.2 °F 11.1 °F 52% 30.38 in 10.0 mi West 8.1 mph - N/A   Clear
8:55 PM 26.6 °F 16.8 °F 11.8 °F 54% 30.39 in 10.0 mi WNW 10.4 mph - N/A   Clear
9:15 PM 26.4 °F 17.3 °F 11.5 °F 53% 30.39 in 10.0 mi West 9.2 mph - N/A   Clear
9:35 PM 27.3 °F 17.1 °F 11.8 °F 52% 30.40 in 10.0 mi WNW 11.5 mph - N/A   Clear
9:55 PM 27.5 °F 16.8 °F 11.8 °F 52% 30.40 in 10.0 mi WNW 12.7 mph - N/A   Clear
10:15 PM 25.9 °F 14.8 °F 11.7 °F 55% 30.41 in 10.0 mi WNW 12.7 mph - N/A   Clear
10:35 PM 25.9 °F 14.8 °F 11.8 °F 55% 30.41 in 10.0 mi WNW 12.7 mph - N/A   Clear
10:55 PM 26.4 °F 15.5 °F 11.5 °F 53% 30.41 in 10.0 mi WNW 12.7 mph - N/A   Clear
11:15 PM 26.6 °F 15.2 °F 11.5 °F 53% 30.41 in 10.0 mi WNW 13.8 mph - N/A   Clear
11:35 PM 26.4 °F 15.0 °F 11.7 °F 54% 30.42 in 10.0 mi WNW 13.8 mph - N/A   Clear
11:55 PM 26.8 °F 15.9 °F 11.5 °F 53% 30.43 in 10.0 mi WNW 12.7 mph - N/A   Clear